User: anonymous   Login
Location: Mt. Cuba Astronomical Observatory
(39.8100°N, 75.6300°W)
Time: 07:42:25
(UTC-04:00)
Language:

Cosmos 2058 - Orbit

View from above orbital plane
View from above orbital plane
View from above satellite
View from above satellite

Ground track
Ground track

The orbit data is extracted from the following two-line orbital elements,

1 20465U 90010A   16121.83362512  .00000706  00000-0  58726-4 0  9993
2 20465  82.4880 284.2098 0014451 240.4402 119.5380 14.97151865423635
Epoch (UTC): 30 April 2016 20:00:25
Eccentricity: 0.0014451
inclination: 82.4880°
perigee height: 565 km
apogee height: 586 km
right ascension of ascending node: 284.2098°
argument of perigee: 240.4402°
revolutions per day: 14.97151865
mean anomaly at epoch: 119.5380°
orbit number at epoch: 42363

The dashed part of the orbit path shows where the satellite is in the earth's shadow,  

DLR